Home > Weather > Würzburg > Past weeks

Flag for Germany Past Weather in Würzburg, Bavaria, Germany — Yesterday and Last 2 Weeks

Now
75 °F

Partly sunny.


Feels Like: 77 °F
Forecast: 64 / 80 °F
Wind: 8 mph from West

Location: Niederstetten

Current Time: Jul 24, 2016 at 6:43:30 PM

Latest Report: Jul 24, 2016 at 5:20 PM


Visibility: N/A

Pressure: 30.09 "Hg

Humidity: 65%

Dew Point: 63 °F

Location of WürzburgLocation

Past Weather in Würzburg — Graph

°F

Würzburg Temperature Yesterday

Maximum temperature yesterday: 73 °F (at 3:20 PM)
Minimum temperature yesterday: 63 °F (at 1:20 AM)
Average temperature yesterday: 67 °F

High & Low Weather Summary for the Past Weeks

 TemperatureHumidityPressure
High88 °F (Jul 20, 3:20 PM)100% (Jul 22, 12:20 AM)30.33 "Hg (Jul 22, 12:20 AM)
Low48 °F (Jul 15, 6:20 AM)29% (Jul 20, 4:20 PM)29.89 "Hg (Jul 10, 8:20 PM)
Average67 °F70%30.09 "Hg
* Reported Jul 9 5:20 PM — Jul 24 5:20 PM, Würzburg, Weather by CustomWeather, © 2016

Note: Actual official high and low records may vary slightly from our data, if they occured in-between our weather recording intervals... More about our weather records

Advertising

Würzburg Weather History for the Previous 24 Hours

Scroll right to see more
 ConditionsComfort  
Time TempWeatherWind HumidityBarometerVisibility
5:20 PM
Sun, Jul 24
75 °FPartly sunny.8 mph65%30.09 "HgN/A
4:20 PM75 °FPartly sunny.9 mph69%30.09 "HgN/A
3:20 PM75 °FPartly sunny.7 mph65%30.09 "HgN/A
2:20 PM73 °FBroken clouds.6 mph69%30.12 "HgN/A
1:20 PM73 °FBroken clouds.5 mph65%30.12 "HgN/A
12:20 PM72 °FBroken clouds.3 mph73%30.12 "HgN/A
11:53 AM72 °FBroken clouds.5 mph73%30.12 "HgN/A
11:20 AM70 °FPartly sunny.7 mph78%30.12 "HgN/A
10:20 AM68 °FPartly sunny.5 mph83%30.12 "HgN/A
9:20 AM66 °FLow clouds.6 mph94%30.12 "Hg4 mi
8:20 AM64 °FFog.6 mph100%30.12 "Hg1 mi
7:20 AM64 °FFog.6 mph100%30.09 "Hg1 mi
6:20 AM64 °FFog.3 mph94%30.09 "Hg1 mi
5:51 AM64 °FFog.5 mph94%30.09 "Hg1 mi
5:20 AM64 °FFog.6 mph94%30.09 "Hg1 mi
4:50 AM64 °FFog.3 mph94%30.09 "Hg2 mi
4:20 AM63 °FPassing clouds.3 mph100%30.09 "Hg4 mi
3:20 AM64 °FFog.2 mph94%30.09 "Hg6 mi
2:20 AM64 °FPartly cloudy.3 mph94%30.09 "HgN/A
1:20 AM64 °FPassing clouds.3 mph100%30.09 "HgN/A
12:20 AM64 °FPassing clouds.2 mph100%30.09 "HgN/A
11:20 PM
Sat, Jul 23
66 °FPartly cloudy.1 mph94%30.09 "HgN/A
10:20 PM68 °FPassing clouds.1 mph88%30.09 "HgN/A
9:20 PM72 °FPartly sunny.2 mph73%30.07 "HgN/A
8:20 PM72 °FPartly sunny.3 mph73%30.07 "HgN/A
7:20 PM73 °FPartly sunny.2 mph69%30.07 "HgN/A
6:20 PM73 °FBroken clouds.3 mph69%30.07 "HgN/A
Weather by CustomWeather, © 2016

See weather overviewHow to use our weather pages